| time (UTC) | temp F | wind direction | speed knots | gust knots | rain 1hr in | rain 24hr in | rain mn in | humidity % | barometer mb |
| 20260502212814 | 65 | 249 | 2.6 | 2.6 | 0.00 | 0.00 | 0.00 | 33 | 1009.9 |
| 20260502212312 | 65 | 254 | 3.5 | 4.3 | 0.00 | 0.00 | 0.00 | 34 | 1010.0 |
| 20260502211809 | 64 | 276 | 3.5 | 5.2 | 0.00 | 0.00 | 0.00 | 33 | 1009.9 |
| 20260502211304 | 65 | 264 | 3.5 | 4.3 | 0.00 | 0.00 | 0.00 | 35 | 1010.2 |
| 20260502210802 | 65 | 285 | 3.5 | 4.3 | 0.00 | 0.00 | 0.00 | 34 | 1010.3 |
| 20260502210259 | 65 | 264 | 2.6 | 2.6 | 0.00 | 0.00 | 0.00 | 33 | 1010.4 |
| 20260502205756 | 65 | 246 | 6.1 | 7.0 | 0.00 | 0.00 | 0.00 | 33 | 1010.5 |
| 20260502205252 | 65 | 261 | 4.3 | 5.2 | 0.00 | 0.00 | 0.00 | 32 | 1010.4 |
| 20260502204749 | 65 | 273 | 6.1 | 7.0 | 0.00 | 0.00 | 0.00 | 33 | 1010.6 |
| 20260502204246 | 65 | 260 | 5.2 | 6.1 | 0.00 | 0.00 | 0.00 | 33 | 1010.6 |
| 20260502203744 | 65 | 242 | 4.3 | 5.2 | 0.00 | 0.00 | 0.00 | 33 | 1010.7 |
| 20260502203242 | 64 | 300 | 2.6 | 2.6 | 0.00 | 0.00 | 0.00 | 34 | 1010.8 |
| 20260502202736 | 64 | 271 | 4.3 | 5.2 | 0.00 | 0.00 | 0.00 | 33 | 1011.0 |
| 20260502202234 | 64 | 268 | 6.1 | 7.0 | 0.00 | 0.00 | 0.00 | 34 | 1011.0 |
| 20260502201731 | 63 | 275 | 3.5 | 4.3 | 0.00 | 0.00 | 0.00 | 35 | 1011.1 |
| 20260502201228 | 64 | 270 | 4.3 | 5.2 | 0.00 | 0.00 | 0.00 | 33 | 1011.4 |
| 20260502200724 | 64 | 246 | 4.3 | 5.2 | 0.00 | 0.00 | 0.00 | 34 | 1011.4 |
| 20260502200220 | 64 | 262 | 6.1 | 7.0 | 0.00 | 0.00 | 0.00 | 34 | 1011.6 |
| 20260502195719 | 64 | 270 | 4.3 | 6.1 | 0.00 | 0.00 | 0.00 | 34 | 1011.7 |
| 20260502195215 | 64 | 256 | 1.7 | 1.7 | 0.00 | 0.00 | 0.00 | 36 | 1011.7 |
| 20260502194711 | 63 | 306 | 6.1 | 7.0 | 0.00 | 0.00 | 0.00 | 33 | 1011.8 |
| 20260502194209 | 64 | 274 | 4.3 | 5.2 | 0.00 | 0.00 | 0.00 | 35 | 1012.0 |
| 20260502193704 | 63 | 265 | 4.3 | 6.1 | 0.00 | 0.00 | 0.00 | 35 | 1012.1 |
| 20260502193202 | 62 | 277 | 4.3 | 5.2 | 0.00 | 0.00 | 0.00 | 35 | 1012.1 |
| 20260502192657 | 62 | 281 | 4.3 | 6.1 | 0.00 | 0.00 | 0.00 | 35 | 1011.9 |
| 20260502192155 | 62 | 260 | 6.1 | 6.1 | 0.00 | 0.00 | 0.00 | 35 | 1012.3 |
| 20260502191651 | 62 | 274 | 3.5 | 6.1 | 0.00 | 0.00 | 0.00 | 36 | 1012.4 |
| 20260502191149 | 61 | 247 | 2.6 | 4.3 | 0.00 | 0.00 | 0.00 | 36 | 1012.5 |
| 20260502190646 | 60 | 250 | 2.6 | 5.2 | 0.00 | 0.00 | 0.00 | 37 | 1012.6 |
| 20260502190144 | 62 | 237 | 3.5 | 4.3 | 0.00 | 0.00 | 0.00 | 36 | 1012.7 |
| 20260502185638 | 62 | 222 | 0.9 | 0.9 | 0.00 | 0.00 | 0.00 | 34 | 1012.9 |
| 20260502185135 | 61 | 231 | 2.6 | 2.6 | 0.00 | 0.00 | 0.00 | 36 | 1013.0 |
| 20260502184631 | 61 | 248 | 2.6 | 2.6 | 0.00 | 0.00 | 0.00 | 35 | 1013.1 |
| 20260502184127 | 60 | 216 | 1.7 | 1.7 | 0.00 | 0.00 | 0.00 | 36 | 1013.4 |
| 20260502183624 | 61 | 255 | 3.5 | 4.3 | 0.00 | 0.00 | 0.00 | 36 | 1013.4 |
| 20260502183120 | 61 | 209 | 4.3 | 5.2 | 0.00 | 0.00 | 0.00 | 37 | 1013.6 |
| 20260502182615 | 61 | 235 | 4.3 | 5.2 | 0.00 | 0.00 | 0.00 | 36 | 1013.5 |
| 20260502182111 | 60 | 200 | 1.7 | 1.7 | 0.00 | 0.00 | 0.00 | 35 | 1013.9 |
| 20260502181609 | 59 | 243 | 1.7 | 1.7 | 0.00 | 0.00 | 0.00 | 36 | 1013.8 |
| 20260502181108 | 59 | 249 | 4.3 | 5.2 | 0.00 | 0.00 | 0.00 | 35 | 1013.9 |
| 20260502180604 | 59 | 222 | 4.3 | 5.2 | 0.00 | 0.00 | 0.00 | 35 | 1013.8 |
| 20260502164007 | 56 | 177 | 3.5 | 4.3 | 0.00 | 0.00 | 0.00 | 36 | 1015.4 |
| 20260502163503 | 56 | 262 | 2.6 | 2.6 | 0.00 | 0.00 | 0.00 | 37 | 1015.6 |
| 20260502163000 | 56 | 230 | 0.9 | 0.9 | 0.00 | 0.00 | 0.00 | 38 | 1015.5 |
| 20260502162457 | 56 | 265 | 4.3 | 4.3 | 0.00 | 0.00 | 0.00 | 37 | 1015.7 |
| 20260502161954 | 55 | 223 | 0.9 | 0.9 | 0.00 | 0.00 | 0.00 | 38 | 1015.7 |
| 20260502161450 | 55 | 260 | 1.7 | 1.7 | 0.00 | 0.00 | 0.00 | 38 | 1015.7 |
| 20260502160949 | 55 | 244 | 3.5 | 4.3 | 0.00 | 0.00 | 0.00 | 40 | 1015.8 |
| 20260502160446 | 54 | 282 | 2.6 | 2.6 | 0.00 | 0.00 | 0.00 | 39 | 1015.8 |
| 20260502151935 | 53 | 278 | 3.5 | 4.3 | 0.00 | 0.00 | 0.00 | 43 | 1016.4 |
| 20260502151432 | 53 | 249 | 4.3 | 7.0 | 0.00 | 0.00 | 0.00 | 42 | 1016.4 |
| 20260502150929 | 53 | 266 | 5.2 | 6.1 | 0.00 | 0.00 | 0.00 | 43 | 1016.5 |
| 20260502150426 | 52 | 273 | 4.3 | 5.2 | 0.00 | 0.00 | 0.00 | 43 | 1016.6 |
| 20260502130312 | 43 | 273 | 1.7 | 1.7 | 0.00 | 0.00 | 0.00 | 66 | 1017.5 |
| 20260502123757 | 40 | 252 | 0.9 | 0.9 | 0.00 | 0.00 | 0.00 | 69 | 1017.4 |
| 20260502123254 | 39 | 260 | 0.9 | 1.7 | 0.00 | 0.00 | 0.00 | 71 | 1017.3 |
| 20260502122751 | 39 | 275 | 0.9 | 1.7 | 0.00 | 0.00 | 0.00 | 73 | 1017.3 |
| 20260502122247 | 38 | 253 | 0.9 | 1.7 | 0.00 | 0.00 | 0.00 | 75 | 1017.4 |
| 20260502121745 | 37 | 229 | 0.9 | 0.9 | 0.00 | 0.00 | 0.00 | 76 | 1017.3 |
| 20260502121243 | 35 | 223 | 0.9 | 0.9 | 0.00 | 0.00 | 0.00 | 79 | 1017.4 |
| 20260502120739 | 35 | 211 | 0.0 | 0.0 | 0.00 | 0.00 | 0.00 | 79 | 1017.2 |
| 20260502120236 | 35 | 211 | 0.0 | 0.0 | 0.00 | 0.00 | 0.00 | 78 | 1017.2 |
| 20260502115734 | 35 | 211 | 0.0 | 0.0 | 0.00 | 0.00 | 0.00 | 78 | 1017.2 |
| 20260502115231 | 35 | 211 | 0.0 | 0.0 | 0.00 | 0.00 | 0.00 | 78 | 1017.3 |
| 20260502114726 | 35 | 211 | 0.0 | 0.0 | 0.00 | 0.00 | 0.00 | 78 | 1017.3 |
| 20260502114224 | 35 | 211 | 0.0 | 0.0 | 0.00 | 0.00 | 0.00 | 78 | 1017.1 |
| 20260502113721 | 35 | 211 | 0.0 | 0.0 | 0.00 | 0.00 | 0.00 | 78 | 1017.2 |
| 20260502113219 | 35 | 213 | 0.0 | 0.0 | 0.00 | 0.00 | 0.00 | 76 | 1017.4 |
| 20260502112716 | 35 | 213 | 0.0 | 0.0 | 0.00 | 0.00 | 0.00 | 76 | 1017.4 |
| 20260502112214 | 35 | 220 | 0.0 | 0.9 | 0.00 | 0.00 | 0.00 | 78 | 1017.3 |
| 20260502111711 | 35 | 207 | 0.0 | 0.0 | 0.00 | 0.00 | 0.00 | 77 | 1017.2 |
| 20260502111209 | 35 | 201 | 0.0 | 0.0 | 0.00 | 0.00 | 0.00 | 77 | 1017.2 |
| 20260502110706 | 37 | 198 | 0.0 | 0.0 | 0.00 | 0.00 | 0.00 | 74 | 1017.2 |
| 20260502110203 | 37 | 230 | 0.9 | 0.9 | 0.00 | 0.00 | 0.00 | 72 | 1017.1 |
| 20260502105701 | 37 | 227 | 0.9 | 0.9 | 0.00 | 0.00 | 0.00 | 72 | 1017.4 |
| 20260502105157 | 37 | 228 | 0.9 | 0.9 | 0.00 | 0.00 | 0.00 | 72 | 1017.2 |
| 20260502104655 | 37 | 254 | 0.9 | 0.9 | 0.00 | 0.00 | 0.00 | 72 | 1017.2 |
| 20260502104152 | 37 | 226 | 0.9 | 0.9 | 0.00 | 0.00 | 0.00 | 71 | 1017.1 |
| 20260502103649 | 37 | 227 | 0.9 | 0.9 | 0.00 | 0.00 | 0.00 | 71 | 1017.2 |
| 20260502103148 | 37 | 248 | 0.9 | 1.7 | 0.00 | 0.00 | 0.00 | 71 | 1017.3 |
| 20260502102644 | 37 | 230 | 1.7 | 1.7 | 0.00 | 0.00 | 0.00 | 71 | 1017.0 |
| 20260502102141 | 37 | 237 | 0.9 | 1.7 | 0.00 | 0.00 | 0.00 | 71 | 1017.1 |
| 20260502101639 | 37 | 233 | 0.9 | 0.9 | 0.00 | 0.00 | 0.00 | 71 | 1017.0 |
| 20260502101137 | 37 | 231 | 0.9 | 0.9 | 0.00 | 0.00 | 0.00 | 72 | 1017.0 |
| 20260502100635 | 37 | 222 | 0.0 | 0.9 | 0.00 | 0.00 | 0.00 | 72 | 1016.8 |
| 20260502100133 | 37 | 223 | 0.0 | 0.0 | 0.00 | 0.00 | 0.00 | 71 | 1016.8 |
| 20260502091107 | 36 | 223 | 0.0 | 0.9 | 0.00 | 0.00 | 0.00 | 73 | 1016.8 |
| 20260502090604 | 36 | 212 | 0.9 | 0.9 | 0.00 | 0.00 | 0.00 | 73 | 1016.8 |
| 20260502071458 | 40 | 218 | 0.0 | 0.0 | 0.00 | 0.00 | 0.00 | 61 | 1017.2 |
| 20260502070956 | 40 | 217 | 0.9 | 0.9 | 0.00 | 0.00 | 0.00 | 60 | 1017.0 |
| 20260502070454 | 41 | 219 | 0.0 | 0.9 | 0.00 | 0.00 | 0.00 | 60 | 1017.3 |
| 20260502065952 | 41 | 243 | 0.9 | 1.7 | 0.00 | 0.00 | 0.00 | 60 | 1017.1 |
| 20260502065451 | 41 | 228 | 0.9 | 0.9 | 0.00 | 0.00 | 0.00 | 59 | 1017.2 |
| 20260502064948 | 41 | 219 | 0.0 | 0.0 | 0.00 | 0.00 | 0.00 | 59 | 1017.1 |
| 20260502064446 | 41 | 232 | 0.9 | 0.9 | 0.00 | 0.00 | 0.00 | 58 | 1017.3 |
| 20260502063943 | 41 | 233 | 0.9 | 0.9 | 0.00 | 0.00 | 0.00 | 58 | 1017.2 |
| 20260502063441 | 41 | 217 | 0.0 | 0.9 | 0.00 | 0.00 | 0.00 | 57 | 1017.5 |
| 20260502062938 | 41 | 251 | 0.9 | 1.7 | 0.00 | 0.00 | 0.00 | 57 | 1017.3 |
| 20260502062435 | 42 | 227 | 0.9 | 0.9 | 0.00 | 0.00 | 0.00 | 57 | 1017.3 |
| 20260502061934 | 42 | 229 | 0.9 | 0.9 | 0.00 | 0.00 | 0.00 | 56 | 1017.3 |
| 20260502061431 | 42 | 222 | 0.9 | 0.9 | 0.00 | 0.00 | 0.00 | 56 | 1017.3 |
| 20260502060927 | 42 | 236 | 0.9 | 0.9 | 0.00 | 0.00 | 0.00 | 57 | 1017.4 |
| 20260502060422 | 42 | 251 | 1.7 | 1.7 | 0.00 | 0.00 | 0.00 | 56 | 1017.3 |
| 20260502055920 | 42 | 251 | 0.9 | 1.7 | 0.00 | 0.00 | 0.00 | 57 | 1017.4 |
| 20260502055418 | 42 | 234 | 0.0 | 0.9 | 0.00 | 0.00 | 0.00 | 57 | 1017.2 |
| 20260502054917 | 42 | 221 | 0.0 | 0.9 | 0.00 | 0.00 | 0.00 | 56 | 1017.3 |
| 20260502054414 | 42 | 222 | 0.9 | 0.9 | 0.00 | 0.00 | 0.00 | 56 | 1017.4 |
| 20260502053912 | 42 | 223 | 0.0 | 0.9 | 0.00 | 0.00 | 0.00 | 56 | 1017.3 |
| 20260502053409 | 42 | 257 | 1.7 | 1.7 | 0.00 | 0.00 | 0.00 | 55 | 1017.4 |
| 20260502052906 | 42 | 237 | 0.9 | 0.9 | 0.00 | 0.00 | 0.00 | 55 | 1017.5 |
| 20260502052405 | 42 | 221 | 0.9 | 0.9 | 0.00 | 0.00 | 0.00 | 55 | 1017.3 |
| 20260502051902 | 42 | 238 | 0.9 | 0.9 | 0.00 | 0.00 | 0.00 | 55 | 1017.4 |
| 20260502051400 | 42 | 228 | 0.9 | 0.9 | 0.00 | 0.00 | 0.00 | 55 | 1017.4 |
| 20260502050857 | 42 | 231 | 0.9 | 0.9 | 0.00 | 0.00 | 0.00 | 55 | 1017.4 |
| 20260502050353 | 42 | 231 | 0.9 | 0.9 | 0.00 | 0.00 | 0.00 | 54 | 1017.4 |
| 20260502045850 | 43 | 228 | 0.9 | 0.9 | 0.00 | 0.00 | 0.00 | 54 | 1017.4 |
| 20260502045347 | 43 | 224 | 0.9 | 0.9 | 0.00 | 0.00 | 0.00 | 54 | 1017.4 |
| 20260502044844 | 43 | 235 | 0.9 | 0.9 | 0.00 | 0.00 | 0.00 | 53 | 1017.4 |
| 20260502044340 | 43 | 237 | 0.9 | 0.9 | 0.00 | 0.00 | 0.00 | 53 | 1017.3 |
| 20260502043837 | 43 | 224 | 0.9 | 0.9 | 0.00 | 0.00 | 0.00 | 54 | 1017.3 |
| 20260502043335 | 43 | 227 | 0.9 | 0.9 | 0.00 | 0.00 | 0.00 | 54 | 1017.2 |
| 20260502042834 | 43 | 218 | 0.0 | 0.0 | 0.00 | 0.00 | 0.00 | 55 | 1017.3 |
| 20260502042332 | 42 | 227 | 0.9 | 0.9 | 0.00 | 0.00 | 0.00 | 55 | 1017.4 |
| 20260502041829 | 41 | 227 | 0.9 | 0.9 | 0.00 | 0.00 | 0.00 | 58 | 1017.4 |
| 20260502041326 | 40 | 220 | 0.0 | 0.0 | 0.00 | 0.00 | 0.00 | 65 | 1017.4 |
| 20260502040823 | 39 | 215 | 0.0 | 0.0 | 0.00 | 0.00 | 0.00 | 63 | 1017.5 |
| 20260502040320 | 39 | 208 | 0.0 | 0.0 | 0.00 | 0.00 | 0.00 | 68 | 1017.3 |
| 20260502035816 | 39 | 209 | 0.0 | 0.0 | 0.00 | 0.00 | 0.00 | 68 | 1017.3 |
| 20260502035313 | 39 | 207 | 0.0 | 0.0 | 0.00 | 0.00 | 0.00 | 70 | 1017.4 |
| 20260502034811 | 39 | 205 | 0.0 | 0.0 | 0.00 | 0.00 | 0.00 | 74 | 1017.3 |
| 20260502034309 | 38 | 203 | 0.0 | 0.0 | 0.00 | 0.00 | 0.00 | 75 | 1017.4 |
| 20260502033807 | 38 | 208 | 0.0 | 0.0 | 0.00 | 0.00 | 0.00 | 76 | 1017.5 |
| 20260502033304 | 38 | 213 | 0.0 | 0.0 | 0.00 | 0.00 | 0.00 | 75 | 1017.5 |
| 20260502032801 | 39 | 213 | 0.0 | 0.0 | 0.00 | 0.00 | 0.00 | 75 | 1017.5 |
| 20260502032257 | 39 | 209 | 0.0 | 0.9 | 0.00 | 0.00 | 0.00 | 72 | 1017.2 |
| 20260502031755 | 39 | 207 | 0.0 | 0.9 | 0.00 | 0.00 | 0.00 | 73 | 1017.3 |
| 20260502031253 | 39 | 203 | 0.0 | 0.0 | 0.00 | 0.00 | 0.00 | 73 | 1017.4 |
| 20260502030751 | 39 | 213 | 0.0 | 0.0 | 0.00 | 0.00 | 0.00 | 74 | 1017.2 |
| 20260502030248 | 39 | 207 | 0.0 | 0.0 | 0.00 | 0.00 | 0.00 | 74 | 1017.4 |
| 20260502025746 | 39 | 208 | 0.0 | 0.0 | 0.00 | 0.00 | 0.00 | 75 | 1017.3 |
| 20260502025244 | 39 | 209 | 0.0 | 0.0 | 0.00 | 0.00 | 0.00 | 73 | 1017.6 |
| 20260502024741 | 40 | 212 | 0.0 | 0.0 | 0.00 | 0.00 | 0.00 | 73 | 1017.3 |
| 20260502024239 | 40 | 213 | 0.0 | 0.0 | 0.00 | 0.00 | 0.00 | 72 | 1017.4 |
| 20260502023737 | 40 | 213 | 0.0 | 0.0 | 0.00 | 0.00 | 0.00 | 70 | 1017.4 |
| 20260502023234 | 40 | 211 | 0.0 | 0.0 | 0.00 | 0.00 | 0.00 | 72 | 1017.5 |
| 20260502022732 | 40 | 208 | 0.0 | 0.0 | 0.00 | 0.00 | 0.00 | 70 | 1017.6 |
| 20260502022227 | 41 | 213 | 0.0 | 0.0 | 0.00 | 0.00 | 0.00 | 69 | 1017.4 |
| 20260502021725 | 41 | 211 | 0.0 | 0.0 | 0.00 | 0.00 | 0.00 | 69 | 1017.3 |
| 20260502021222 | 41 | 207 | 0.0 | 0.0 | 0.00 | 0.00 | 0.00 | 69 | 1017.3 |
| 20260502020719 | 42 | 211 | 0.0 | 0.0 | 0.00 | 0.00 | 0.00 | 68 | 1017.3 |
| 20260502020216 | 42 | 211 | 0.0 | 0.0 | 0.00 | 0.00 | 0.00 | 67 | 1017.0 |
| 20260502015714 | 42 | 211 | 0.0 | 0.0 | 0.00 | 0.00 | 0.00 | 66 | 1017.1 |
| 20260502015210 | 43 | 212 | 0.0 | 0.0 | 0.00 | 0.00 | 0.00 | 64 | 1017.1 |
| 20260502014708 | 43 | 213 | 0.0 | 0.0 | 0.00 | 0.00 | 0.00 | 63 | 1016.8 |
| 20260502014205 | 44 | 213 | 0.0 | 0.0 | 0.00 | 0.00 | 0.00 | 63 | 1016.8 |
| 20260502013701 | 44 | 213 | 0.0 | 0.0 | 0.00 | 0.00 | 0.00 | 62 | 1016.7 |
| 20260502013155 | 45 | 209 | 0.0 | 0.0 | 0.00 | 0.00 | 0.00 | 54 | 1016.7 |
| 20260502012654 | 45 | 214 | 0.0 | 0.0 | 0.00 | 0.00 | 0.00 | 56 | 1016.6 |
| 20260502012152 | 46 | 211 | 0.0 | 0.0 | 0.00 | 0.00 | 0.00 | 56 | 1016.5 |
| 20260502011648 | 46 | 211 | 0.0 | 0.0 | 0.00 | 0.00 | 0.00 | 55 | 1016.6 |
| 20260502011144 | 47 | 210 | 0.0 | 0.0 | 0.00 | 0.00 | 0.00 | 50 | 1016.6 |
| 20260502010642 | 48 | 207 | 0.0 | 0.0 | 0.00 | 0.00 | 0.00 | 43 | 1016.5 |
| 20260502010138 | 48 | 210 | 0.0 | 0.0 | 0.00 | 0.00 | 0.00 | 46 | 1016.5 |
| 20260502005635 | 49 | 213 | 0.0 | 0.0 | 0.00 | 0.00 | 0.00 | 52 | 1016.6 |
| 20260502005133 | 49 | 203 | 0.0 | 0.0 | 0.00 | 0.00 | 0.00 | 42 | 1016.5 |
| 20260502004628 | 49 | 204 | 0.0 | 0.0 | 0.00 | 0.00 | 0.00 | 43 | 1016.5 |
| 20260502004126 | 50 | 206 | 0.0 | 0.0 | 0.00 | 0.00 | 0.00 | 42 | 1016.5 |
| 20260502003624 | 50 | 212 | 0.0 | 0.0 | 0.00 | 0.00 | 0.00 | 40 | 1016.5 |
| 20260502003120 | 50 | 212 | 0.0 | 0.0 | 0.00 | 0.00 | 0.00 | 38 | 1016.4 |
| 20260502002616 | 50 | 208 | 0.0 | 0.0 | 0.00 | 0.00 | 0.00 | 37 | 1016.5 |
| 20260502002114 | 50 | 192 | 0.0 | 0.0 | 0.00 | 0.00 | 0.00 | 39 | 1016.5 |
| 20260502001612 | 50 | 172 | 0.9 | 0.9 | 0.00 | 0.00 | 0.00 | 37 | 1016.5 |
| 20260502001108 | 50 | 170 | 0.0 | 0.0 | 0.00 | 0.00 | 0.00 | 38 | 1016.7 |
| 20260502000607 | 50 | 181 | 0.0 | 0.0 | 0.00 | 0.00 | 0.00 | 36 | 1016.6 |
| 20260501235559 | 51 | 53 | 1.7 | 1.7 | 0.00 | 0.00 | 0.00 | 37 | 1016.6 |
| 20260501235055 | 50 | 357 | 2.6 | 2.6 | 0.00 | 0.00 | 0.00 | 35 | 1016.5 |
| 20260501234551 | 50 | 18 | 2.6 | 4.3 | 0.00 | 0.00 | 0.00 | 36 | 1016.5 |
| 20260501234049 | 51 | 352 | 2.6 | 2.6 | 0.00 | 0.00 | 0.00 | 37 | 1016.5 |
| 20260501233547 | 51 | 355 | 2.6 | 2.6 | 0.00 | 0.00 | 0.00 | 34 | 1016.3 |
| 20260501233044 | 51 | 53 | 0.9 | 0.9 | 0.00 | 0.00 | 0.00 | 35 | 1016.4 |
| 20260501232540 | 53 | 24 | 5.2 | 6.1 | 0.00 | 0.00 | 0.00 | 35 | 1016.4 |
| 20260501232037 | 53 | 61 | 2.6 | 4.3 | 0.00 | 0.00 | 0.00 | 34 | 1016.4 |
| 20260501231535 | 53 | 320 | 2.6 | 2.6 | 0.00 | 0.00 | 0.00 | 34 | 1016.2 |
| 20260501231033 | 53 | 303 | 1.7 | 1.7 | 0.00 | 0.00 | 0.00 | 32 | 1016.4 |
| 20260501230532 | 53 | 293 | 2.6 | 2.6 | 0.00 | 0.00 | 0.00 | 32 | 1016.4 |
| 20260501230029 | 53 | 348 | 2.6 | 4.3 | 0.00 | 0.00 | 0.00 | 33 | 1016.6 |
| 20260501225526 | 53 | 307 | 3.5 | 4.3 | 0.00 | 0.00 | 0.00 | 34 | 1016.4 |
| 20260501225022 | 52 | 309 | 1.7 | 2.6 | 0.00 | 0.00 | 0.00 | 34 | 1016.3 |
| 20260501224520 | 51 | 29 | 1.7 | 1.7 | 0.00 | 0.00 | 0.00 | 36 | 1016.5 |
| 20260501224017 | 52 | 348 | 2.6 | 2.6 | 0.00 | 0.00 | 0.00 | 34 | 1016.3 |
| 20260501223513 | 52 | 0 | 3.5 | 5.2 | 0.00 | 0.00 | 0.00 | 35 | 1016.2 |
| 20260501223010 | 52 | 344 | 2.6 | 2.6 | 0.00 | 0.00 | 0.00 | 33 | 1016.3 |
| 20260501222506 | 52 | 3 | 5.2 | 7.8 | 0.00 | 0.00 | 0.00 | 35 | 1016.3 |
| 20260501222003 | 52 | 270 | 3.5 | 4.3 | 0.00 | 0.00 | 0.00 | 35 | 1016.2 |
| 20260501221459 | 51 | 279 | 2.6 | 2.6 | 0.00 | 0.00 | 0.00 | 35 | 1016.6 |
| 20260501220957 | 51 | 344 | 7.0 | 7.0 | 0.00 | 0.00 | 0.00 | 35 | 1016.7 |
| 20260501220455 | 51 | 59 | 2.6 | 2.6 | 0.00 | 0.00 | 0.00 | 36 | 1016.5 |
| 20260501215951 | 52 | 40 | 2.6 | 4.3 | 0.00 | 0.00 | 0.00 | 37 | 1016.8 |
| 20260501215448 | 51 | 339 | 1.7 | 2.6 | 0.00 | 0.00 | 0.00 | 35 | 1016.6 |
| 20260501214943 | 51 | 22 | 1.7 | 2.6 | 0.00 | 0.00 | 0.00 | 36 | 1016.6 |
| 20260501214438 | 51 | 8 | 2.6 | 2.6 | 0.00 | 0.00 | 0.00 | 34 | 1016.7 |
| 20260501213934 | 50 | 339 | 1.7 | 2.6 | 0.00 | 0.00 | 0.00 | 38 | 1016.6 |
| 20260501213432 | 51 | 46 | 2.6 | 4.3 | 0.00 | 0.00 | 0.00 | 38 | 1016.8 |